Terminal Aerodrome Forecast
Issued by NWS

Home | Current Version | Previous Version | Text Only | Print | Product List | Glossary On
Versions: 1 2 3 4 5 6 7 8 9 10 11 12 13 14 15 16 17 18 19 20 21 22 23 24
000
FTUS44 KLIX 262300
TAFHUM
TAF
KHUM 262340Z 2700/2724 11012KT P6SM BKN030 OVC045
     FM270400 10010KT P6SM OVC015
     FM270900 11008KT 3SM SHRA OVC008
     FM271200 12010KT 3/4SM +SHRA OVC008
     FM271800 16011KT 3/4SM +TSRA OVC008CB=

USA.gov is the U.S. government's official web portal to all federal, state and local government web resources and services.